This demonstration page uses our WeatherBlox Daily Observations layout. Learn more.

Left ArrowRight Arrow

Hourly Observations for July 10, 2018

Temp ( °F °C ) Dew Point ( °F °C ) Humidity (%) Winds ( mph kmh ) Pressure ( in mb ) Visibility ( mi km ) Precip ( " mm )
12:15 am 00:15 Clear 72 22.4 66 19 81 81 N N/A 30.09 1019 10 16 N/A
12:35 am 00:35 Clear 71 21.4 65 18.5 84 84 N N/A 30.12 1020 10 16 N/A
12:55 am 00:55 Clear 69 20.6 65 18.5 88 88 SE 3 6 30.12 1020 10 16 N/A
1:15 am 01:15 Clear 70 21.2 63 17.1 78 78 SSE 5 7 30.12 1020 10 16 N/A
1:35 am 01:35 Clear 69 20.8 62 16.9 78 78 SE 5 7 30.12 1020 10 16 N/A
1:55 am 01:55 Clear 69 20.5 62 16.6 78 78 N N/A 30.12 1020 10 16 N/A
2:15 am 02:15 Clear 69 20.3 62 16.5 79 79 SSE 5 7 30.12 1020 10 16 N/A
2:35 am 02:35 Clear 69 20.3 61 16.1 77 77 SSE 5 7 30.09 1019 10 16 N/A
2:55 am 02:55 Clear 69 20.5 60 15.8 75 75 S 3 6 30.09 1019 10 16 N/A
3:15 am 03:15 Clear 69 20.6 60 15.5 73 73 SSE 5 7 30.09 1019 10 16 N/A
3:35 am 03:35 Clear 69 20.3 60 15.3 73 73 S 3 6 30.09 1019 10 16 N/A
3:55 am 03:55 Clear 68 19.9 59 15.2 74 74 SSE 5 7 30.09 1019 10 16 N/A
4:15 am 04:15 Clear 68 19.8 60 15.5 76 76 N N/A 30.09 1019 10 16 N/A
4:35 am 04:35 Clear 66 18.9 60 15.3 80 80 N N/A 30.09 1019 10 16 N/A
4:55 am 04:55 Clear 67 19.3 59 15.1 77 77 S 5 7 30.09 1019 10 16 N/A
5:15 am 05:15 Clear 67 19.2 60 15.3 78 78 N N/A 30.09 1019 10 16 N/A
5:35 am 05:35 Clear 64 17.5 59 15.2 86 86 N N/A 30.12 1020 10 16 N/A
5:55 am 05:55 Clear 63 17 59 15.2 89 89 N N/A 30.12 1020 10 16 N/A
6:15 am 06:15 Clear 62 16.7 59 15.1 90 90 N N/A 30.12 1020 10 16 N/A
6:35 am 06:35 Sunny 62 16.5 59 15.1 92 92 N N/A 30.12 1020 7 11 N/A
6:55 am 06:55 Sunny 63 17.2 60 15.8 92 92 N N/A 30.12 1020 10 16 N/A
7:15 am 07:15 Sunny 64 18 62 16.6 92 92 N N/A 30.09 1019 10 16 N/A
7:35 am 07:35 Sunny 68 20 65 18.3 90 90 N N/A 30.09 1019 10 16 N/A
7:55 am 07:55 Sunny 73 23 65 18.4 75 75 SSW 3 6 30.06 1018 10 16 N/A
8:15 am 08:15 Sunny 75 23.9 65 18.6 72 72 SSW 6 9 30.06 1018 10 16 N/A
8:35 am 08:35 Sunny 77 24.8 66 19.1 71 71 SSW 7 11 30.06 1018 10 16 N/A
8:55 am 08:55 Sunny 78 25.5 66 19 67 67 SSW 8 13 30.03 1017 10 16 N/A
9:15 am 09:15 Sunny 79 26.1 67 19.4 67 67 S 8 13 30.06 1018 10 16 N/A
9:35 am 09:35 Sunny 80 26.5 66 19.1 64 64 SSW 9 15 30.06 1018 10 16 N/A
9:55 am 09:55 Sunny 81 27.2 67 19.2 62 62 S 10 17 30.03 1017 10 16 N/A
10:15 am 10:15 Sunny 82 27.5 67 19.3 61 61 SSW 10 17 30.03 1017 10 16 N/A
10:35 am 10:35 Sunny 83 28.1 67 19.4 59 59 S 8 13 30.03 1017 10 16 N/A
10:55 am 10:55 Sunny 84 28.7 68 19.9 59 59 SSW 8 13 30.00 1016 10 16 N/A
11:15 am 11:15 Sunny 85 29.2 68 20.2 58 58 S 10 17 30.00 1016 10 16 N/A
11:35 am 11:35 Sunny 85 29.5 67 19.7 56 56 SSW 7 11 30.00 1016 10 16 N/A
11:55 am 11:55 Sunny 86 30 70 21 59 59 SSE 10 17 30.00 1016 10 16 N/A
12:15 pm 12:15 Sunny 86 30 69 20.4 56 56 SSE 10 17 30.00 1016 10 16 N/A
12:35 pm 12:35 Sunny 87 30.3 70 20.9 57 57 S 14 22 30.00 1016 10 16 N/A
12:55 pm 12:55 Sunny 86 30.2 69 20.3 55 55 SSE 15 24 30.00 1016 10 16 N/A
1:15 pm 13:15 Sunny 87 30.5 69 20.6 55 55 S 14 22 29.97 1015 10 16 N/A
1:35 pm 13:35 Sunny 87 30.5 67 19.7 52 52 S 15 24 29.97 1015 10 16 N/A
1:55 pm 13:55 Sunny 87 30.8 65 18.2 47 47 S 16 26 29.97 1015 10 16 N/A
2:15 pm 14:15 Sunny 88 31 65 18.2 46 46 SSE 16 26 29.94 1014 10 16 N/A
2:35 pm 14:35 Sunny 88 31 64 17.8 45 45 SSE 15 24 29.94 1014 10 16 N/A
2:55 pm 14:55 Sunny 88 31.1 63 17.4 44 44 SSE 14 22 29.94 1014 10 16 N/A
3:15 pm 15:15 Sunny 88 31.2 64 17.5 44 44 SSE 14 22 29.94 1014 10 16 N/A
3:35 pm 15:35 Sunny 88 31.3 62 16.7 41 41 SSE 13 20 29.94 1014 10 16 N/A
3:55 pm 15:55 Sunny 89 31.5 64 17.6 43 43 SSE 13 20 29.94 1014 10 16 N/A
4:15 pm 16:15 Sunny 89 31.5 63 17.1 42 42 SSE 9 15 29.94 1014 10 16 N/A
4:35 pm 16:35 Sunny 89 31.7 64 17.7 43 43 SSE 14 22 29.91 1013 10 16 N/A
4:55 pm 16:55 Sunny 89 31.5 64 17.7 44 44 SSE 10 17 29.94 1014 10 16 N/A
5:15 pm 17:15 Sunny 89 31.5 62 16.5 40 40 SSE 12 19 29.88 1012 10 16 N/A
5:35 pm 17:35 Sunny 88 31.2 63 17.4 44 44 SSE 13 20 29.88 1012 10 16 N/A
5:55 pm 17:55 Sunny 88 31 63 17.2 44 44 SSE 14 22 29.85 1011 10 16 N/A
6:15 pm 18:15 Sunny 88 31 64 17.8 45 45 SSE 9 15 29.85 1011 10 16 N/A
6:35 pm 18:35 Sunny 87 30.7 65 18.2 47 47 S 8 13 29.88 1012 10 16 N/A
6:55 pm 18:55 Sunny 87 30.5 66 18.7 49 49 SSE 9 15 29.88 1012 10 16 N/A
7:15 pm 19:15 Sunny 86 30 65 18.3 49 49 S 7 11 29.88 1012 10 16 N/A
7:35 pm 19:35 Sunny 85 29.4 66 18.8 53 53 SSE 6 9 29.88 1012 10 16 N/A
7:55 pm 19:55 Sunny 83 28.5 67 19.6 59 59 SSE 6 9 29.88 1012 10 16 N/A
8:15 pm 20:15 Sunny 82 27.7 66 19.1 60 60 SSE 7 11 29.88 1012 10 16 N/A
8:35 pm 20:35 Sunny 80 26.9 65 18.2 59 59 SE 7 11 29.91 1013 10 16 N/A
8:55 pm 20:55 Sunny 79 26.2 64 17.9 60 60 SE 6 9 29.91 1013 10 16 N/A
9:15 pm 21:15 Clear 78 25.8 63 17.3 59 59 SE 6 9 29.91 1013 10 16 N/A
9:35 pm 21:35 Clear 78 25.7 64 17.5 61 61 SE 7 11 29.91 1013 10 16 N/A
9:55 pm 21:55 Clear 77 24.9 64 17.8 65 65 SE 7 11 29.91 1013 10 16 N/A
10:15 pm 22:15 Clear 76 24.2 65 18.1 69 69 SE 7 11 29.91 1013 10 16 N/A
10:35 pm 22:35 Clear 74 23.4 65 18.4 74 74 SE 6 9 29.94 1014 10 16 N/A
10:55 pm 22:55 Clear 75 23.7 65 18.1 71 71 SE 6 9 29.91 1013 10 16 N/A
11:15 pm 23:15 Clear 75 23.9 65 18.4 71 71 SE 6 9 29.91 1013 10 16 N/A
11:35 pm 23:35 Clear 73 22.7 65 18.6 78 78 SSE 7 11 29.94 1014 10 16 N/A
11:55 pm 23:55 Clear 73 23 66 18.8 77 77 SSE 8 13 29.94 1014 10 16 N/A

Powered by AerisWeather